ECMWFFLT2_500_spd_168.txt.gz
Wind_Speed
37 36 36 36 36 37 37 37 37 37 37 37 37 37 37 38 38 39 40 41 41 42 43 44 44 45 46 46 47 48 48 49 49 50 50 50 50 50 50 50 50 50 50 50 50 50 50 50 50 50 50 51
37 37 37 37 37 37 37 37 37 38 38 38 38 39 39 40 41 41 42 43 44 45 45 46 47 48 49 49 50 51 51 52 52 53 54 54 55 55 55 55 54 54 54 53 53 53 53 52 53 53 52 52
38 37 37 37 37 38 38 38 38 38 39 39 40 41 42 42 43 44 45 45 46 47 48 49 49 50 51 51 52 53 53 54 54 55 55 56 57 58 59 59 59 59 58 58 58 57 56 56 55 55 56 55
38 38 38 38 38 38 38 39 39 40 40 41 42 43 44 45 46 46 47 48 49 49 50 51 52 52 53 53 54 54 55 55 55 56 56 57 58 59 60 61 61 62 62 62 62 61 61 60 59 59 58 58
39 39 39 39 39 40 40 40 41 41 42 43 44 45 46 47 48 49 50 51 51 52 53 53 54 55 55 56 56 57 57 57 58 58 58 59 59 60 61 62 63 63 64 64 64 64 64 64 64 63 62 61
40 40 40 41 41 41 42 42 43 44 45 45 46 47 48 49 50 51 52 53 54 54 55 56 56 57 58 58 59 60 60 61 61 61 62 62 62 63 63 63 64 65 66 66 66 67 67 67 67 66 66 65
41 41 42 42 43 43 44 44 45 46 47 48 48 49 50 51 52 53 54 55 55 56 57 57 58 59 60 60 61 62 63 64 64 65 65 66 66 66 67 67 67 67 68 68 69 69 70 70 70 69 69 68
42 43 43 44 44 45 45 46 47 48 48 49 50 51 52 53 54 54 55 56 57 57 58 59 60 60 61 62 63 64 65 66 67 67 68 68 69 69 70 70 70 71 71 71 72 72 72 72 73 73 72 72
44 44 45 45 46 46 47 47 48 49 50 50 51 52 53 54 55 56 57 58 58 59 59 60 61 61 62 63 64 65 66 67 68 69 70 71 72 73 73 74 74 74 75 75 75 76 75 75 75 75 75 75
45 45 46 46 47 47 48 49 49 50 51 52 53 53 54 55 56 57 57 58 59 60 60 61 62 62 63 64 65 66 67 68 70 71 72 74 75 76 77 78 78 79 79 79 80 80 80 80 80 79 79 78
46 47 47 48 48 49 49 50 51 52 52 53 54 54 55 56 56 57 58 58 59 60 60 61 62 63 64 65 66 67 69 70 72 73 74 75 77 78 79 80 81 82 83 83 84 84 85 85 85 85 84 83
47 48 48 49 49 50 51 51 52 53 53 54 54 55 55 56 57 57 58 59 60 60 61 62 63 64 65 66 67 69 70 71 72 73 75 76 77 78 79 80 82 83 84 85 85 86 87 88 88 88 89 88
48 49 49 50 50 51 51 52 53 53 53 54 54 55 55 56 57 58 59 59 60 61 61 62 63 64 66 67 68 69 70 71 72 73 74 75 76 77 78 79 80 81 83 84 85 86 87 88 89 89 90 91
49 50 50 51 51 52 52 53 53 53 54 54 54 55 56 57 57 58 59 60 60 61 62 63 64 65 66 66 67 68 69 70 71 72 73 74 75 76 76 77 78 79 80 81 82 83 84 85 86 87 88 89
50 51 51 52 52 52 53 53 53 54 54 54 55 56 57 57 58 58 59 60 61 61 62 63 63 64 65 65 66 67 68 69 70 71 72 73 73 73 74 75 75 76 76 77 78 79 80 81 82 83 84 85
51 52 52 53 53 53 53 54 54 54 54 55 56 57 57 58 58 59 60 60 60 61 61 62 62 63 63 64 65 66 67 69 69 70 71 71 71 72 72 72 72 72 73 73 73 74 74 75 76 77 78 78
52 53 53 53 54 54 54 54 54 55 55 56 57 57 58 58 59 59 59 60 60 60 60 61 61 62 63 63 64 65 66 67 68 69 69 69 70 70 70 69 69 69 70 70 70 70 70 71 71 72 72 73
53 54 54 54 54 55 55 55 55 55 56 57 57 58 58 58 59 59 59 59 59 60 60 60 61 62 62 63 64 65 66 66 67 67 67 67 67 68 68 67 67 67 67 67 67 67 68 68 68 68 68 69
54 54 55 55 55 55 55 55 56 56 56 57 58 58 58 58 58 58 58 59 59 59 60 60 61 62 63 63 64 65 65 65 65 65 66 65 65 65 66 66 66 66 66 66 66 65 66 66 66 66 66 66
55 55 55 55 56 56 56 56 56 57 57 57 57 57 58 58 57 57 58 58 58 59 60 60 61 62 62 63 64 64 64 64 64 64 64 65 64 64 64 65 65 65 65 65 65 65 65 65 65 65 65 65
55 56 56 56 56 57 57 57 57 57 57 57 57 57 57 57 57 57 57 58 58 59 60 60 61 61 62 62 63 63 63 63 63 63 64 64 64 64 64 64 64 64 64 64 64 64 65 65 65 65 65 64
56 56 57 57 57 57 58 58 58 58 57 57 57 57 57 57 57 57 58 58 59 59 60 60 61 61 62 62 62 62 63 63 63 63 63 64 64 64 64 64 64 64 64 64 64 63 63 63 64 64 63 63
57 57 57 58 58 58 59 58 58 58 58 57 57 57 57 57 58 58 58 59 59 60 60 60 61 61 61 61 61 61 62 62 63 63 64 64 64 65 65 65 65 65 65 64 63 62 62 61 61 62 62 61
58 58 58 59 59 60 60 59 59 58 58 58 58 58 58 58 59 59 60 60 60 60 60 61 61 61 61 61 61 61 62 62 63 63 64 64 65 65 65 66 66 66 66 65 64 62 61 60 60 60 60 60
59 59 60 60 60 61 60 60 60 59 59 59 59 59 59 60 60 61 61 61 61 61 61 61 61 61 61 61 61 61 62 63 63 64 65 65 65 66 66 66 67 67 67 66 65 63 61 60 59 59 59 59
60 61 61 61 61 61 61 61 60 60 60 60 60 60 60 61 61 62 62 62 62 62 62 62 62 62 62 62 62 62 62 63 64 65 66 66 66 67 67 67 67 68 68 67 67 65 62 60 59 58 58 58
61 62 62 62 62 62 62 62 62 62 62 61 61 61 62 62 62 62 63 63 63 63 63 62 63 63 63 63 63 63 63 64 65 66 67 68 68 68 68 68 68 68 69 69 68 68 66 63 62 60 59 58
63 63 63 63 63 63 63 63 63 63 63 63 63 63 63 63 63 63 63 63 63 63 63 63 64 64 64 64 64 64 64 65 66 67 68 69 70 69 69 69 69 69 70 70 70 70 69 67 66 64 63 61
64 65 65 64 64 64 64 64 65 64 64 65 64 64 64 64 64 64 64 64 64 63 64 64 65 65 65 66 66 66 66 67 67 68 69 71 71 72 71 71 70 70 71 71 71 71 71 71 69 68 67 66
65 65 66 66 65 65 65 66 66 65 66 66 66 65 65 65 65 64 64 64 65 65 65 65 65 66 66 66 67 67 68 68 69 69 70 72 73 74 74 74 73 73 73 73 72 73 72 72 72 70 70 70
66 66 66 67 66 67 67 67 67 67 67 68 68 67 66 66 66 66 66 66 66 66 66 67 67 67 67 67 68 68 69 70 70 71 72 73 74 75 76 77 76 76 76 75 75 75 74 73 73 72 71 71

ECMWFFLT2_500_spd_174.txt.gz
Wind_Speed
41 41 41 41 41 41 42 42 42 42 42 43 43 43 43 43 43 43 43 42 42 41 41 41 40 40 40 40 40 40 41 41 41 42 42 42 42 42 42 43 43 43 43 43 43 43 43 43 43 43 43 43
42 42 42 42 42 43 43 43 43 43 43 43 44 44 43 43 43 42 42 42 41 41 41 41 41 41 41 41 41 41 42 42 42 43 43 43 44 44 44 45 45 45 45 45 45 45 45 45 45 45 45 45
43 43 43 43 43 44 44 44 44 44 44 44 44 43 43 43 43 42 42 41 41 41 41 41 42 42 42 42 43 43 43 43 44 44 44 45 45 45 46 46 46 47 47 47 47 47 47 47 47 47 48 47
43 43 43 44 44 44 44 44 44 44 44 44 43 43 43 43 42 42 42 42 42 42 42 42 43 43 44 44 44 44 44 45 45 45 46 46 47 47 47 48 48 48 48 49 49 49 49 49 49 49 49 49
43 43 43 44 44 44 44 44 44 44 44 44 44 44 43 43 43 43 43 43 43 43 44 44 44 45 45 45 46 46 46 46 47 47 48 48 48 49 49 49 50 50 50 51 51 51 51 51 51 51 51 51
43 43 44 44 44 44 44 44 44 44 44 44 44 44 44 43 43 43 44 44 44 44 45 45 46 46 47 47 47 47 48 48 48 49 49 50 50 51 51 51 52 52 52 52 53 53 53 53 53 53 53 53
44 44 44 44 44 44 44 44 44 44 44 44 44 44 44 44 44 44 44 45 45 46 46 47 47 48 48 48 49 49 49 50 50 51 51 52 52 53 53 53 54 54 54 54 55 55 55 55 55 55 56 55
44 44 44 44 44 44 44 44 44 44 44 44 44 44 44 44 45 45 46 46 47 47 48 48 49 49 49 49 50 50 51 51 52 52 53 53 54 54 55 55 56 56 56 57 57 57 57 58 58 58 58 58
45 45 45 45 45 45 45 45 45 45 45 45 45 45 45 45 46 46 47 48 48 49 49 49 50 50 50 51 51 52 52 53 53 54 54 55 55 56 56 57 57 57 58 58 58 59 59 59 60 60 61 61
45 45 45 45 45 45 45 45 45 45 45 45 46 46 46 47 47 48 49 49 50 50 50 51 51 51 52 52 53 53 54 54 55 55 56 56 57 57 58 58 58 59 59 59 59 60 60 60 61 61 62 62
46 46 46 46 46 46 46 46 46 46 46 47 47 47 48 48 49 49 50 50 50 51 51 52 52 53 53 54 54 55 55 56 57 57 58 58 58 59 59 59 60 60 60 60 60 60 60 61 61 62 63 63
46 46 46 46 46 46 47 47 47 47 48 48 48 49 49 49 50 50 50 51 52 52 53 54 54 54 55 55 56 57 57 58 58 59 59 59 59 60 60 60 60 60 60 60 60 60 61 61 62 62 63 64
47 47 47 47 47 47 48 48 49 49 49 49 50 50 50 50 51 51 52 53 53 54 55 55 55 56 56 57 58 58 59 59 59 59 60 60 60 61 61 61 61 61 61 61 61 61 62 62 63 63 64 64
48 48 48 48 48 48 49 50 50 50 50 50 50 50 51 51 52 53 53 54 55 55 55 56 56 57 57 58 59 59 60 60 60 60 60 61 61 61 61 62 62 62 62 62 63 63 63 63 64 65 65 65
48 48 48 48 49 50 50 50 51 51 51 51 51 52 52 53 53 54 55 55 55 56 56 56 57 58 59 59 60 60 61 61 61 61 61 61 61 62 62 62 62 62 63 63 63 64 64 65 65 66 66 66
48 49 49 49 50 51 51 51 51 51 51 51 52 53 53 54 54 55 55 56 56 56 57 57 58 59 60 60 61 61 61 61 61 61 61 62 62 62 63 63 63 63 64 64 65 65 65 65 66 66 67 67
49 49 50 51 51 51 52 52 51 51 52 52 53 54 54 55 55 56 56 56 57 57 58 59 59 60 61 61 61 61 61 61 61 62 62 62 62 63 63 63 64 64 65 65 66 66 66 66 66 67 67 67
50 51 51 52 52 52 52 52 52 52 53 53 54 55 55 56 56 56 57 57 58 59 59 60 61 61 61 61 62 62 62 62 62 62 62 63 63 63 63 64 64 65 65 66 66 67 67 67 67 67 67 67
52 52 52 52 52 52 53 53 53 53 54 55 55 56 56 56 57 57 58 59 60 60 61 61 62 62 62 62 62 62 63 63 63 63 63 63 64 64 64 65 65 66 66 67 67 68 68 68 68 68 68 68
53 53 53 53 53 53 53 53 54 54 55 56 56 56 57 57 58 59 59 60 61 61 62 62 62 63 63 63 63 63 64 64 64 64 64 64 65 65 65 66 66 67 68 68 68 69 69 69 69 69 69 69
53 53 53 53 54 54 54 54 55 55 56 56 57 57 58 58 59 60 61 61 62 62 63 63 63 63 63 63 64 64 64 64 65 65 65 65 65 66 66 67 67 68 69 69 69 70 70 70 70 69 69 70
52 53 53 53 54 54 54 55 56 56 57 57 57 58 58 59 60 61 62 62 63 63 63 63 63 64 64 64 64 65 65 65 65 65 66 66 66 67 68 68 69 70 70 71 71 71 71 71 71 71 71 71
53 53 53 54 54 54 55 56 56 57 57 57 58 58 60 61 61 62 63 63 63 63 63 64 64 64 65 65 65 66 66 66 66 66 67 67 68 68 69 70 71 71 72 72 72 72 72 72 72 72 72 72
53 53 54 54 55 55 56 57 57 58 58 58 58 60 61 61 62 63 64 64 64 64 64 64 65 65 66 66 66 66 67 67 67 67 68 69 69 70 71 72 72 73 73 73 73 73 73 73 73 73 73 73
53 54 54 55 55 56 57 58 58 58 58 59 60 61 61 62 64 64 64 64 64 65 65 65 66 66 67 67 67 67 68 68 68 69 70 70 71 72 73 73 74 74 74 74 74 74 74 74 74 74 74 74
54 55 55 56 56 58 59 59 59 58 59 60 61 62 63 64 65 65 65 65 66 66 66 67 67 68 68 68 68 69 69 69 70 70 71 72 73 74 74 75 75 75 75 75 75 76 76 76 75 75 74 74
55 56 56 58 59 60 60 59 59 59 59 61 62 63 64 65 65 66 66 67 67 67 67 68 69 69 69 69 69 70 70 70 71 72 72 73 74 75 75 76 76 76 76 75 76 76 77 77 77 76 75 74
56 57 58 59 60 60 60 60 60 60 61 61 63 64 65 66 67 67 67 67 68 68 69 70 70 71 71 71 71 71 71 71 72 72 73 74 75 75 76 76 76 76 75 75 76 77 77 78 77 77 77 76
57 58 59 60 60 60 60 60 61 61 62 62 64 66 66 67 68 67 67 68 69 70 71 72 72 73 72 72 72 71 71 71 72 72 73 74 75 76 76 77 76 76 75 75 76 77 78 79 78 78 78 77
59 60 61 61 61 61 61 61 62 62 63 64 65 66 67 67 68 68 68 69 70 72 73 74 74 74 73 72 72 71 71 72 73 74 74 75 75 75 76 77 76 76 76 76 76 77 78 79 79 79 79 79
61 62 62 63 62 62 62 62 62 63 64 65 66 67 67 67 68 68 69 71 72 74 75 74 74 74 73 73 72 73 73 73 74 75 75 75 76 76 76 77 77 77 77 76 77 77 78 79 79 79 79 79

ECMWFFLT2_500_spd_180.txt.gz
Wind_Speed
46 47 47 48 48 48 48 48 48 48 47 47 46 45 44 43 43 42 42 42 41 41 41 41 41 41 41 41 40 40 40 40 41 41 41 41 41 40 40 39 39 39 39 39 39 39 39 39 39 39 39 39
47 47 48 48 48 48 48 47 47 47 46 46 45 45 44 44 43 43 43 43 42 43 42 43 43 42 42 42 41 41 41 42 42 42 42 42 42 41 41 40 40 39 39 39 39 40 40 40 40 40 40 40
47 47 47 47 47 47 47 47 46 46 46 46 45 45 45 45 44 44 44 44 44 44 44 44 44 43 43 42 42 42 42 42 42 43 43 43 42 42 42 41 41 40 40 40 41 41 41 41 41 41 42 42
45 46 46 46 46 46 46 46 46 46 46 46 46 46 46 46 46 46 45 45 45 45 45 45 44 44 43 43 43 43 43 43 43 43 43 43 43 43 43 42 42 42 42 42 43 43 43 43 43 43 43 43
45 45 46 46 46 46 46 46 46 47 47 47 47 47 47 47 47 47 46 46 46 46 46 45 45 44 44 44 44 44 44 44 44 44 44 44 44 44 44 44 44 44 44 44 44 44 44 44 45 45 45 45
45 46 46 47 47 47 47 47 47 47 47 47 47 47 47 47 47 47 46 46 46 46 46 45 45 44 44 44 44 45 45 45 45 46 46 46 45 45 45 45 45 45 45 45 45 46 46 46 46 46 46 47
47 47 48 48 48 48 48 48 48 48 48 47 47 47 47 47 47 47 46 46 46 45 45 45 45 45 45 45 45 46 46 46 47 47 47 47 47 47 47 46 46 46 47 47 47 47 47 48 48 48 48 48
48 49 49 49 49 49 49 49 49 49 49 49 49 49 48 48 48 48 47 46 46 46 46 46 45 45 45 46 46 46 47 47 47 48 48 48 48 48 48 48 48 48 48 49 49 49 49 49 50 50 50 50
50 50 50 50 50 50 50 50 50 50 50 50 50 50 49 49 49 48 48 47 47 47 47 47 47 47 47 47 47 48 48 48 48 48 48 48 49 49 49 49 49 50 50 50 51 51 51 51 51 51 51 51
50 51 51 51 51 51 51 51 51 51 51 50 50 50 50 49 49 48 48 47 47 47 48 48 48 48 48 48 49 49 49 49 49 49 49 50 50 50 50 50 51 51 51 52 52 52 52 52 52 52 52 52
50 51 51 51 51 50 51 51 51 51 51 50 50 50 49 49 48 48 48 48 48 48 48 48 49 49 49 49 49 49 50 50 50 50 51 51 51 51 52 52 52 52 53 53 53 54 54 54 54 54 54 54
51 50 50 49 49 49 50 50 50 50 50 50 50 49 49 49 49 49 49 49 49 49 49 49 49 49 49 50 50 50 50 51 51 52 52 52 52 53 53 53 54 54 54 55 55 55 55 56 56 56 56 56
51 50 49 49 48 48 48 49 49 50 50 50 49 49 49 49 49 49 49 49 49 49 49 49 50 50 50 50 51 51 52 52 53 53 53 53 54 54 54 55 55 56 56 56 57 57 57 57 58 58 58 58
51 50 49 49 49 48 48 49 49 49 49 49 49 49 49 49 49 49 49 50 50 50 50 50 50 50 51 51 52 52 53 53 54 54 54 54 55 55 56 56 56 57 57 58 58 58 59 59 59 60 60 60
51 50 50 50 50 49 49 50 49 49 50 49 49 49 50 50 50 50 50 50 50 51 51 51 51 52 52 53 53 54 54 54 55 55 55 56 56 56 57 57 58 58 59 59 60 60 60 61 61 61 61 61
51 51 51 51 50 50 50 50 50 50 50 50 50 50 51 51 51 51 51 51 51 52 52 52 53 53 54 54 55 55 56 56 56 56 57 57 58 58 59 59 59 60 60 61 61 61 62 62 62 63 63 63
51 50 51 51 51 50 51 51 51 52 51 51 51 51 52 52 52 52 52 52 53 53 53 54 54 55 55 56 56 57 57 57 57 58 58 59 59 60 60 61 61 61 62 62 62 63 63 63 64 64 64 64
51 50 51 51 51 51 51 51 51 52 52 52 52 52 53 53 53 53 54 54 54 55 55 56 56 57 57 57 58 58 58 59 59 59 60 60 61 61 62 62 62 63 63 64 64 64 65 65 65 65 65 66
50 50 51 51 52 51 52 52 52 53 53 53 53 53 54 54 55 55 55 56 57 57 57 58 58 58 59 59 59 60 60 60 60 61 61 62 62 63 63 63 64 64 65 65 65 66 66 66 66 66 67 67
50 50 50 51 52 52 52 53 54 54 53 54 54 54 56 56 56 57 57 58 59 59 59 60 60 60 60 61 61 61 61 61 62 62 63 63 64 64 64 65 65 65 65 66 66 66 66 67 67 68 68 68
51 51 51 51 52 52 53 54 54 54 54 55 55 56 57 58 58 59 59 60 60 61 61 61 61 62 62 62 62 62 62 62 63 64 64 65 65 65 65 65 66 66 66 66 67 67 67 68 68 69 69 70
53 53 53 53 54 53 54 55 55 55 56 56 57 58 59 59 60 61 61 62 62 62 63 63 63 62 62 62 62 62 63 64 64 65 65 66 66 66 66 66 66 66 67 67 68 68 69 70 70 70 71 70
56 56 56 56 57 56 56 57 57 58 58 59 59 60 61 62 63 63 63 64 64 64 64 64 63 62 62 62 63 63 64 65 66 66 66 66 66 66 66 67 67 67 68 69 69 70 71 71 72 72 71 71
58 58 58 59 59 59 58 59 60 61 61 61 62 62 63 63 64 64 65 65 65 65 64 63 62 62 62 63 64 65 66 66 67 67 67 67 67 67 67 67 68 69 69 70 71 72 73 73 73 73 72 72
58 58 59 60 60 60 60 61 62 62 62 62 63 63 64 64 65 65 65 65 65 65 64 63 62 62 63 64 65 67 68 68 68 68 68 67 67 67 68 68 69 70 71 72 73 73 74 74 74 74 74 73
56 57 58 59 60 61 61 62 63 63 63 63 63 64 64 64 64 65 65 65 65 65 64 63 63 63 65 66 68 69 70 69 69 69 68 68 68 69 69 70 70 71 72 73 74 75 75 75 75 75 75 74
56 56 57 58 59 59 60 61 62 63 63 63 62 63 63 63 63 64 64 65 65 65 64 64 65 66 67 69 70 71 71 70 70 69 69 69 69 70 71 71 71 72 73 75 76 76 76 77 77 76 75 75
56 56 57 57 58 59 60 60 61 62 62 62 62 62 62 63 63 64 65 66 66 66 66 67 67 68 70 71 72 72 72 71 70 70 70 71 72 72 72 72 73 74 75 76 77 78 78 79 79 78 77 77
57 57 57 58 59 59 60 61 61 62 62 62 63 63 64 64 64 65 67 68 68 68 69 69 69 70 71 72 73 73 72 71 71 71 71 72 73 73 73 74 74 75 76 77 78 79 79 80 80 79 79 79
58 58 58 59 59 60 60 61 62 62 63 64 64 64 65 65 66 67 68 69 69 69 69 69 70 71 72 73 73 73 73 72 72 72 73 74 75 75 75 76 76 76 77 78 79 80 80 80 80 80 81 80
58 58 59 59 60 61 61 62 62 63 64 65 65 65 66 67 67 68 69 69 69 69 69 70 71 72 73 74 74 75 75 75 75 75 76 76 76 77 77 77 77 78 79 80 81 81 81 81 81 80 81 81

ECMWFFLT2_500_spd_186.txt.gz
Wind_Speed
43 42 42 42 42 42 42 42 42 43 43 44 44 44 44 45 45 44 44 45 45 46 46 46 46 46 46 46 46 46 46 46 45 45 44 44 44 43 42 42 41 41 41 41 42 42 42 43 43 42 42 42
42 42 42 42 42 42 42 43 43 43 44 44 45 45 45 45 45 45 46 46 46 47 47 47 46 46 46 46 46 45 45 45 45 44 44 44 44 43 43 43 42 42 42 42 42 43 43 43 43 43 43 43
40 40 40 41 41 42 42 43 43 43 44 44 45 46 46 46 46 46 46 47 47 47 47 47 46 46 45 45 45 45 44 44 44 44 44 44 44 44 44 44 44 44 44 44 44 44 44 44 44 44 44 44
38 38 39 39 40 41 42 42 43 43 43 44 45 45 45 45 45 46 46 46 46 46 46 46 46 45 45 45 44 44 44 44 45 45 45 45 46 45 45 45 45 45 46 46 45 46 46 46 46 46 46 46
38 38 39 39 40 40 41 41 42 42 42 43 43 43 44 44 44 44 45 45 45 45 46 46 46 45 45 45 45 45 45 45 45 46 46 46 46 47 47 47 47 47 47 47 47 47 47 47 47 47 47 47
38 39 40 40 40 41 41 41 42 42 43 43 43 44 44 44 44 45 45 45 45 46 46 46 46 46 46 46 46 46 46 46 46 46 47 47 47 47 48 48 48 48 48 48 48 48 48 48 48 48 48 48
39 40 41 41 41 42 42 43 44 44 45 44 44 45 45 46 46 46 46 47 47 47 47 47 47 47 47 47 47 47 47 47 47 47 47 48 48 48 48 49 49 49 49 50 49 49 49 49 49 49 49 49
40 41 42 42 43 43 44 45 46 46 46 46 46 47 47 48 48 48 48 48 48 48 48 48 48 48 48 48 48 48 48 48 48 48 48 48 48 49 49 49 49 49 50 50 50 50 50 50 50 50 50 50
41 42 43 43 44 45 45 46 47 47 47 47 47 48 48 48 48 49 49 49 49 49 50 50 49 49 49 49 49 49 49 49 49 49 49 49 49 49 50 50 50 50 50 50 50 50 50 50 51 51 51 51
42 43 43 44 44 44 45 46 46 47 47 47 47 48 48 48 48 49 49 49 49 50 50 50 50 50 50 50 50 50 49 49 49 49 50 50 50 50 51 51 51 51 51 51 51 51 51 51 51 52 52 52
42 43 43 44 44 44 45 46 46 46 47 47 48 48 48 49 49 49 49 49 50 50 50 50 50 49 49 49 49 50 50 50 50 50 50 50 51 51 52 52 52 52 52 52 52 52 53 53 53 53 53 53
42 43 43 44 44 44 45 46 46 47 47 48 48 49 49 50 50 50 50 50 50 50 50 50 50 49 49 49 49 49 50 50 50 51 51 51 51 52 52 52 52 52 52 52 53 53 54 54 54 54 54 54
42 43 43 43 43 44 45 45 46 46 47 47 48 49 50 50 50 50 50 50 51 51 51 50 50 49 49 49 49 49 49 50 51 51 51 52 52 52 52 52 52 52 52 53 53 53 54 54 54 54 55 55
42 42 42 42 43 43 44 44 45 45 45 46 47 48 48 48 49 49 50 50 50 51 51 51 51 50 50 50 49 49 49 50 51 51 52 52 53 53 53 53 53 53 53 54 54 54 55 55 55 55 55 55
41 42 42 43 43 44 44 45 45 45 45 45 46 47 47 48 48 48 49 49 50 50 51 51 51 51 51 50 50 50 50 50 51 52 52 53 53 53 54 54 54 54 55 55 55 55 56 56 56 56 56 56
42 43 44 44 44 45 46 46 46 47 47 47 47 48 48 48 48 48 49 49 50 50 51 51 51 51 51 51 51 51 51 52 52 53 53 54 54 54 55 55 55 56 56 56 57 57 57 58 58 58 58 57
44 44 45 46 46 47 47 47 48 48 48 48 49 49 49 49 49 49 49 50 50 51 51 52 52 52 52 52 52 52 53 53 54 54 54 55 55 55 56 56 57 57 57 58 58 58 59 59 59 59 59 59
45 46 47 47 48 48 48 49 49 50 50 50 50 50 50 50 50 50 50 51 51 52 52 53 53 53 53 54 54 54 54 55 55 55 56 56 56 57 57 58 58 58 59 59 60 60 60 60 61 61 61 61
47 48 48 49 49 49 50 50 50 51 51 51 51 51 51 51 51 51 52 52 53 53 54 55 55 55 55 55 55 56 56 56 56 57 57 57 58 58 59 59 59 60 60 61 61 61 61 62 62 62 63 63
49 49 49 50 50 51 51 51 52 52 52 52 53 53 53 53 53 53 54 54 55 55 56 56 57 57 57 57 58 58 58 58 58 58 59 59 60 60 60 61 61 62 62 62 63 63 63 63 63 64 64 65
50 50 51 51 51 52 52 53 53 54 54 54 54 54 55 55 55 56 56 57 57 57 57 58 58 58 58 59 59 60 60 60 61 61 61 62 62 62 63 63 63 64 64 64 64 64 65 65 65 65 66 66
51 51 52 52 53 53 54 54 55 55 55 55 56 57 57 58 58 58 58 59 59 59 59 59 59 59 60 60 61 61 61 62 62 63 63 64 64 64 65 65 65 66 66 66 66 66 66 66 67 67 67 68
51 52 53 53 54 54 55 55 56 56 57 57 58 59 59 59 59 60 60 60 60 60 61 61 61 61 61 62 62 63 63 63 64 64 65 65 66 66 66 66 67 68 68 68 68 68 68 68 68 69 69 69
52 53 53 54 54 55 56 56 57 58 58 58 59 59 60 61 61 61 61 62 62 62 62 63 63 63 63 64 64 64 65 65 66 66 66 67 67 67 67 68 68 68 69 69 69 69 69 69 69 70 70 71
53 53 54 54 55 55 56 57 57 58 58 58 59 60 61 61 61 61 62 62 63 64 64 65 65 65 66 66 66 66 67 67 68 68 68 68 68 68 69 69 69 70 70 70 70 70 70 70 71 71 72 72
53 53 54 54 55 55 56 57 57 58 58 58 59 60 61 61 62 62 63 63 64 65 66 66 66 67 67 68 68 68 69 69 69 69 70 70 70 70 70 71 71 72 71 71 71 71 72 72 72 73 73 73
53 53 54 54 54 55 56 56 57 57 58 58 58 59 60 61 62 63 64 64 65 66 66 66 67 67 67 68 68 68 69 69 69 70 70 70 71 71 71 72 72 72 72 72 72 73 73 73 73 74 74 73
54 54 54 54 54 55 55 56 57 57 57 58 58 59 59 61 62 62 63 64 64 65 65 65 65 66 66 67 67 68 68 68 69 69 69 70 70 71 71 71 72 72 72 72 73 74 74 74 74 74 74 74
56 56 56 56 56 56 57 57 58 58 58 58 59 59 60 61 62 62 63 63 64 64 65 65 65 66 66 67 67 68 68 69 69 70 70 70 71 71 71 71 72 73 73 72 73 74 74 75 75 74 74 75
56 56 57 57 58 58 59 59 59 59 60 60 60 61 61 62 62 63 63 64 64 65 65 65 66 66 66 67 67 68 69 69 70 70 70 71 71 71 72 72 73 73 73 74 74 75 75 76 76 76 76 76
56 57 57 58 58 59 59 60 60 61 61 62 62 63 63 63 63 64 64 64 64 65 65 66 66 66 67 67 68 68 69 69 70 70 71 72 72 72 73 74 74 74 75 76 76 76 77 77 78 78 78 78